This is the latest recevied weather packets stored in our database for station/object KC0RPY. If no packets are shown the sender has not sent any weather packets the latest 10 day(s).
| Time | Temp. | Humidity | Pressure | Rain* | Wind** | Luminosity | Snow |
|---|---|---|---|---|---|---|---|
| 1777486948 | 15° C | 60% | 1020.8 hPa | 0 mm | - | 484 W/m² | - |
| 1777486645 | 15° C | 58% | 1020.8 hPa | 0 mm | - | 447 W/m² | - |
| 1777486343 | 14.44° C | 60% | 1021.3 hPa | 0 mm | - | 554 W/m² | - |
| 1777486040 | 15° C | 60% | 1021.3 hPa | 0 mm | - | 447 W/m² | - |
| 1777485737 | 14.44° C | 60% | 1021.3 hPa | 0 mm | - | 494 W/m² | - |
| 1777485432 | 14.44° C | 61% | 1021.3 hPa | 0 mm | - | 433 W/m² | - |
| 1777485128 | 13.89° C | 60% | 1021.3 hPa | 0 mm | - | 411 W/m² | - |
| 1777484825 | 15° C | 59% | 1021.3 hPa | 0 mm | - | 567 W/m² | - |
| 1777484522 | 14.44° C | 59% | 1021.6 hPa | 0 mm | - | 676 W/m² | - |
| 1777484219 | 14.44° C | 60% | 1021.6 hPa | 0 mm | - | 766 W/m² | - |
| 1777483915 | 14.44° C | 61% | 1021.6 hPa | 0 mm | - | 665 W/m² | - |
| 1777483611 | 14.44° C | 60% | 1021.9 hPa | 0 mm | - | 829 W/m² | - |
| 1777483306 | 13.89° C | 61% | 1021.9 hPa | 0 mm | - | 340 W/m² | - |
| 1777483003 | 13.89° C | 60% | 1021.9 hPa | 0 mm | - | 902 W/m² | - |
| 1777482699 | 13.89° C | 62% | 1022.3 hPa | 0 mm | - | 316 W/m² | - |
| 1777482396 | 13.89° C | 61% | 1022.3 hPa | 0 mm | - | 288 W/m² | - |
| 1777482093 | 13.89° C | 62% | 1022.3 hPa | 0 mm | - | 920 W/m² | - |
| 1777481791 | 13.33° C | 65% | 1021.9 hPa | 0 mm | - | 923 W/m² | - |
| 1777481488 | 13.89° C | 62% | 1022.3 hPa | 0 mm | - | 766 W/m² | - |
| 1777481184 | 13.89° C | 61% | 1022.3 hPa | 0 mm | - | 894 W/m² | - |
| 1777480881 | 13.89° C | 63% | 1021.9 hPa | 0 mm | - | 960 W/m² | - |
| 1777480577 | 13.33° C | 64% | 1021.9 hPa | 0 mm | - | 927 W/m² | - |
| 1777480275 | 13.33° C | 65% | 1022.3 hPa | 0 mm | - | 950 W/m² | - |
| 1777479970 | 12.78° C | 66% | 1022.3 hPa | 0 mm | - | 944 W/m² | - |
| 1777479668 | 13.33° C | 65% | 1021.9 hPa | 0 mm | - | 945 W/m² | - |
* Rain latest hour (hover to see other rain measurements)
** Current wind speed in m/s (hover to see current wind gust speed)